Location: Bremen
(53.0833°N, 8.8000°E)
Time: 13:06:26
(UTC+02:00)

ISS - Pass Details

Date: 02 May 2025
Orbit: 416 x 419 km, 51.6° (Epoch: 14 May)

Event Time Altitude Azimuth Distance (km) Brightness Sun altitude
Exits shadow 03:01:05 46° 144° (SE) 570 -3.4 -18.3°
Drops below altitude 10° 03:04:03 10° 88° (E) 1,498 -0.6 -18.1°
Sets 03:06:12 0° 82° (E) 2,363 0.6 -17.9°
